Regional Weather Roundup
Issued by NWS

Home | Current Version | Previous Version | Graphics & Text | Print | Product List | Glossary On
Versions: 1 2 3 4 5 6 7 8 9 10 11 12 13 14 15 16 17 18 19 20 21 22 23 24 25 26 27 28 29 30 31 32 33 34 35 36 37 38 39 40 41 42 43 44 45 46 47 48 49 50
000
ASUS45 KSLC 310310
RWRUT

UTAH REGIONAL WEATHER ROUNDUP
NATIONAL WEATHER SERVICE SALT LAKE CITY UT
900 PM MDT WED JUL 30 2014

UTZ001>011-023>025-310400-

NORTHERN UTAH

CITY           SKY/WX    TMP DP  RH WIND       PRES   REMARKS
HILL AFB       CLEAR     71  54  53 E17G30    30.20S
LOGAN          CLEAR     73  49  42 SE12G25   30.22R
OGDEN          CLEAR     74  52  46 E20G25    30.18R
PROVO AIRPORT  PTCLDY    73  54  49 NW5       30.17S
SALT LAKE CITY PTCLDY    75  53  46 E9        30.15R
VERNAL         MOCLDY    67  53  61 N10       30.26R
WENDOVER       CLEAR     81  52  36 E10       30.16S
HEBER CITY     PTCLDY    64  54  68 N3        30.26S
WEST JORDAN    CLEAR     73  61  64 N13       30.18R

$$

UTZ012>022-026-027-310400-

SOUTHERN UTAH

CITY           SKY/WX    TMP DP  RH WIND       PRES   REMARKS
BRYCE CANYON   CLEAR     66  45  46 NW9       30.34R
CEDAR CITY     PTCLDY    75  49  39 NE3       30.18R
MILFORD        CLEAR     81  48  31 N9        30.13R
MOAB/CYNLANDS  CLEAR     77  57  50 NE15      30.09R
PRICE          MOCLDY    70  54  56 NE18      30.23R
ST GEORGE      CLEAR     95  50  21 NW5       29.95R HX  92

$$

REGIONAL REPORTS     COLORADO/ARIZONA

CITY           SKY/WX    TMP DP  RH WIND       PRES   REMARKS
CRAIG, CO      CLOUDY    59  56  89 E5        30.30R
GRAND JUNCTION PTCLDY    68  60  75 N3        30.16R
RIFLE          CLOUDY    70  56  61 CALM      30.22R
MONTROSE       PTCLDY    72  53  51 VRB6      30.22R
CORTEZ         CLEAR     73  51  46 CALM      30.18R
PAGE, AZ       PTCLDY    88  47  24 W3        30.05R
GRAND CANYON   PTCLDY    76  48  37 CALM      30.26R
KINGMAN        CLEAR     93  46  19 NW8       30.00R
FLAGSTAFF      CLEAR     75  44  33 W6        30.31R

$$

REGIONAL REPORTS    NEVADA/IDAHO/WYOMING

CITY           SKY/WX    TMP DP  RH WIND       PRES   REMARKS
LAS VEGAS, NV  CLOUDY    99  47  17 W13G20    29.87R HX  95
ELY            PTCLDY    73  44  35 N5        30.25R
ELKO           MOCLDY    79  44  28 NE3       30.17S
POCATELLO, ID  CLEAR     76  49  38 SE12      30.20S
BURLEY         MOCLDY    70  57  63 NW6       30.15F
EVANSTON, WY   CLOUDY    58  53  84 E10       30.39R
ROCK SPRINGS   CLOUDY    58  42  55 SE12      30.37S

$$



USA.gov is the U.S. government's official web portal to all federal, state and local government web resources and services.